Probability
81 77 81 81 61 68 65 77 74 68 65 61 61 55 68 77 52 39 48 74 90 87 74 71 65 68 68 65 55 48 58 58 61 55 52 52 52 52 42 48 48 48 58
81 81 77 84 71 68 68 74 71 74 77 74 71 68 71 58 65 58 42 55 81 74 74 68 65 65 71 65 65 65 61 61 61 61 58 58 55 52 45 48 42 39 45
77 87 74 71 74 77 74 81 81 68 65 68 68 71 71 71 61 71 55 48 52 74 74 71 68 68 68 68 68 65 68 68 68 65 52 48 52 45 48 48 45 39 39
74 77 74 68 77 77 77 81 74 74 71 61 65 68 71 77 68 68 61 61 55 42 71 74 77 77 74 71 74 71 65 68 68 65 48 48 45 39 32 35 35 39 32
71 71 71 74 77 74 77 61 65 68 58 71 58 58 65 68 65 58 58 61 65 68 58 71 81 81 77 77 77 71 68 65 68 58 52 45 45 42 39 39 42 39 39
74 74 71 74 71 74 81 77 77 71 71 74 39 42 48 48 52 58 52 48 55 55 61 52 58 61 71 71 68 65 61 68 61 65 52 48 45 45 39 32 29 32 29
77 77 65 74 74 74 77 74 74 65 68 61 68 55 58 45 42 45 55 48 45 48 58 65 48 55 45 55 58 61 58 61 58 61 48 45 45 45 39 26 29 29 29
77 61 77 74 71 77 74 84 74 71 58 68 58 48 45 39 39 26 42 45 29 35 39 39 52 52 48 35 23 48 48 42 45 45 35 26 32 35 29 32 29 29 29
71 68 71 71 74 77 74 77 77 77 74 65 61 58 48 42 48 45 39 39 45 42 32 39 35 42 42 42 35 32 45 45 42 32 39 32 32 23 23 23 23 26 29
71 68 71 71 74 74 77 74 71 77 77 71 71 68 61 55 45 42 35 39 48 45 42 19 23 29 39 35 39 29 32 32 35 39 35 35 29 26 19 19 19 26 26
65 61 61 65 65 68 68 68 68 68 71 71 68 65 55 52 39 42 35 32 32 32 35 39 26 29 35 35 39 19 16 19 23 26 32 29 23 19 19 23 19 23 23
58 58 65 61 65 65 61 61 68 65 71 68 68 65 52 42 42 42 39 42 45 39 32 32 32 35 35 35 29 16 16 16 10 13 16 19 23 19 19 23 16 16 19
58 58 58 65 65 61 61 65 68 65 61 68 65 71 58 48 52 45 45 45 32 29 39 29 29 32 26 29 26 10 10 0 0 0 6 6 13 10 16 19 19 19 16
55 61 65 61 61 61 58 65 65 61 65 68 55 61 58 58 55 48 45 42 26 23 29 26 32 29 29 29 16 0 10 0 0 0 0 0 0 0 3 3 6 10 6
61 65 58 61 65 61 65 65 65 65 61 58 55 52 58 55 52 52 52 48 32 26 29 19 29 29 32 26 6 16 23 3 0 0 0 0 0 0 0 0 0 0 0
65 65 55 61 58 61 61 61 65 65 52 55 58 55 55 58 55 52 52 52 42 42 23 26 35 23 23 16 6 16 19 6 3 0 0 0 0 0 0 0 0 0 0
68 68 68 65 61 55 55 52 48 48 48 52 55 58 58 58 61 58 55 52 48 42 29 23 35 35 42 23 16 19 16 10 6 3 0 0 0 0 0 0 0 0 0
65 68 68 61 58 58 61 48 48 48 52 52 52 55 55 52 58 55 55 48 39 39 29 23 29 32 32 29 26 26 13 13 16 3 0 0 0 0 0 0 0 0 0
65 61 65 61 55 58 58 58 55 52 52 48 48 48 48 52 52 48 52 48 45 32 32 26 23 29 29 26 29 26 16 19 16 6 0 0 0 0 0 0 0 0 0
68 65 65 58 55 55 58 58 58 55 48 48 48 45 42 42 42 42 42 45 39 42 35 29 29 26 23 23 23 23 16 23 19 6 6 0 0 0 0 0 0 0 0
55 58 58 55 58 52 52 48 52 48 45 39 39 42 39 35 32 32 26 35 26 32 29 26 19 23 19 16 13 16 13 16 19 16 13 6 0 0 0 0 0 0 0
61 61 55 52 48 39 35 35 35 42 42 39 39 39 32 29 13 16 6 6 13 23 26 26 19 19 19 16 13 13 6 6 6 10 13 10 3 3 0 0 0 0 0
58 55 52 48 48 29 26 19 19 32 39 45 42 39 32 23 19 19 13 6 3 0 10 19 16 16 19 19 16 13 10 10 10 10 10 3 6 6 6 6 0 0 0
58 52 48 45 45 29 19 16 10 16 32 35 39 42 39 29 23 26 19 19 16 13 10 3 13 16 10 13 13 13 10 10 10 10 3 0 3 6 3 0 0 0 0
45 48 42 39 35 26 23 10 3 29 32 32 32 29 39 29 19 10 13 16 19 16 6 3 0 13 6 3 0 6 6 3 3 0 0 0 3 6 6 3 0 0 0
45 32 35 35 29 29 16 10 0 23 26 29 32 23 23 16 10 3 13 19 10 10 6 6 3 0 3 0 0 0 6 3 0 0 3 0 0 3 3 6 3 0 0
Height
5897 5897 5896 5896 5896 5895 5895 5895 5895 5896 5896 5896 5896 5896 5896 5896 5896 5896 5896 5896 5896 5896 5896 5896 5896 5896 5896 5896 5895 5895 5895 5895 5895 5895 5895 5895 5895 5895 5895 5895 5895 5895 5895
5897 5897 5896 5896 5896 5895 5895 5895 5895 5895 5895 5895 5895 5895 5895 5895 5895 5896 5896 5895 5895 5895 5895 5895 5895 5895 5895 5895 5895 5894 5894 5894 5894 5894 5894 5894 5894 5894 5893 5893 5893 5893 5893
5897 5897 5896 5896 5896 5895 5895 5895 5895 5895 5895 5895 5895 5895 5895 5895 5895 5895 5895 5895 5895 5895 5895 5894 5895 5894 5894 5894 5893 5893 5893 5893 5893 5893 5892 5892 5892 5892 5891 5891 5891 5891 5891
5897 5896 5896 5896 5895 5895 5895 5895 5894 5894 5894 5894 5894 5894 5894 5894 5894 5894 5894 5894 5894 5894 5894 5894 5893 5893 5893 5892 5892 5892 5891 5891 5891 5891 5891 5890 5890 5890 5890 5889 5889 5889 5889
5897 5896 5896 5896 5895 5895 5894 5894 5894 5894 5894 5893 5893 5893 5893 5893 5893 5893 5892 5892 5892 5892 5892 5892 5892 5892 5891 5891 5890 5890 5890 5889 5889 5889 5888 5888 5887 5887 5887 5887 5887 5886 5886
5896 5896 5895 5895 5895 5894 5894 5894 5893 5893 5893 5892 5892 5892 5892 5892 5892 5891 5891 5891 5891 5891 5891 5891 5890 5890 5890 5889 5889 5888 5887 5887 5887 5886 5886 5885 5885 5885 5884 5884 5884 5884 5884
5896 5895 5895 5894 5894 5893 5893 5893 5892 5892 5892 5891 5891 5891 5891 5890 5890 5890 5889 5889 5889 5889 5889 5889 5888 5888 5888 5887 5887 5886 5885 5885 5884 5883 5883 5882 5882 5882 5881 5881 5881 5881 5881
5895 5894 5894 5893 5893 5892 5892 5891 5891 5891 5890 5889 5889 5889 5889 5889 5888 5888 5887 5887 5887 5886 5886 5886 5886 5886 5886 5885 5885 5884 5883 5882 5881 5881 5880 5879 5879 5878 5878 5878 5878 5878 5878
5894 5893 5892 5892 5891 5891 5890 5890 5889 5889 5888 5888 5887 5887 5887 5886 5886 5886 5885 5885 5885 5884 5884 5884 5883 5883 5883 5882 5882 5881 5880 5879 5878 5878 5877 5876 5876 5875 5875 5874 5874 5874 5874
5893 5892 5891 5890 5889 5889 5888 5888 5887 5887 5886 5886 5885 5885 5884 5883 5883 5883 5883 5882 5882 5881 5881 5881 5880 5880 5879 5879 5878 5877 5877 5876 5875 5874 5874 5873 5872 5872 5871 5871 5870 5869 5869
5891 5890 5889 5888 5887 5886 5886 5885 5885 5884 5883 5883 5882 5882 5881 5880 5880 5880 5879 5879 5878 5878 5878 5877 5877 5876 5876 5875 5874 5874 5873 5872 5871 5870 5870 5869 5868 5868 5867 5867 5866 5865 5865
5889 5888 5887 5886 5885 5884 5884 5883 5882 5881 5881 5880 5879 5878 5878 5877 5877 5876 5876 5875 5875 5875 5874 5874 5873 5872 5872 5871 5870 5869 5868 5867 5867 5866 5865 5865 5864 5864 5863 5862 5861 5861 5860
5887 5885 5884 5883 5883 5882 5881 5880 5879 5878 5878 5877 5876 5875 5874 5874 5873 5873 5873 5872 5871 5871 5870 5869 5868 5867 5867 5866 5866 5865 5864 5863 5862 5861 5861 5860 5859 5859 5858 5857 5856 5856 5855
5883 5882 5881 5880 5880 5879 5878 5877 5876 5875 5874 5873 5873 5872 5871 5870 5869 5869 5868 5868 5867 5867 5866 5865 5864 5861 5861 5861 5861 5860 5859 5858 5857 5856 5856 5855 5854 5854 5853 5852 5851 5851 5850
5880 5879 5878 5877 5876 5875 5875 5874 5873 5872 5871 5870 5869 5868 5867 5866 5865 5864 5863 5863 5863 5862 5861 5860 5859 5858 5857 5857 5856 5855 5854 5853 5852 5851 5851 5850 5849 5848 5848 5847 5846 5845 5844
5876 5875 5874 5873 5872 5872 5871 5870 5869 5868 5867 5866 5865 5864 5863 5862 5861 5860 5859 5858 5857 5856 5856 5855 5854 5853 5852 5851 5850 5849 5848 5847 5846 5846 5845 5844 5844 5843 5842 5842 5841 5841 5839
5873 5872 5870 5869 5868 5867 5866 5865 5864 5863 5862 5861 5860 5859 5858 5857 5855 5855 5853 5852 5852 5851 5850 5849 5848 5847 5846 5845 5844 5843 5842 5841 5840 5839 5839 5838 5838 5837 5836 5836 5835 5835 5834
5868 5867 5866 5865 5864 5863 5862 5860 5859 5858 5857 5856 5854 5853 5852 5851 5849 5848 5847 5846 5845 5844 5844 5843 5842 5841 5840 5839 5838 5837 5836 5835 5834 5833 5832 5832 5831 5831 5830 5829 5829 5828 5828
5863 5862 5861 5860 5859 5857 5856 5855 5854 5852 5851 5850 5849 5847 5846 5844 5843 5842 5840 5839 5838 5837 5837 5836 5835 5834 5833 5832 5831 5830 5828 5827 5827 5826 5826 5825 5824 5823 5823 5823 5822 5822 5821
5857 5856 5855 5854 5853 5852 5850 5849 5848 5846 5845 5844 5842 5840 5839 5838 5836 5835 5834 5832 5831 5830 5829 5829 5828 5826 5825 5824 5823 5822 5821 5820 5819 5819 5818 5818 5817 5816 5816 5815 5815 5814 5813
5851 5850 5849 5848 5846 5845 5844 5843 5841 5840 5838 5837 5835 5833 5832 5831 5829 5828 5826 5825 5824 5823 5822 5821 5820 5819 5817 5816 5815 5814 5813 5812 5811 5810 5810 5810 5809 5809 5808 5807 5807 5806 5806
5844 5843 5842 5841 5840 5838 5837 5836 5834 5832 5831 5829 5828 5826 5824 5823 5822 5820 5819 5818 5816 5815 5814 5813 5812 5810 5809 5808 5806 5805 5804 5804 5804 5803 5801 5801 5801 5801 5800 5800 5799 5798 5797
5837 5835 5834 5833 5832 5831 5829 5828 5826 5824 5823 5822 5820 5818 5817 5815 5814 5812 5811 5810 5808 5807 5806 5805 5804 5802 5801 5800 5798 5797 5796 5795 5795 5794 5793 5793 5792 5792 5792 5791 5790 5789 5789
5828 5827 5826 5825 5824 5823 5821 5820 5818 5816 5815 5814 5812 5810 5809 5807 5805 5804 5803 5802 5801 5799 5798 5797 5796 5795 5793 5791 5790 5788 5787 5786 5786 5785 5784 5784 5783 5783 5782 5782 5781 5780 5780
5820 5819 5818 5817 5816 5814 5813 5811 5809 5808 5807 5805 5804 5802 5801 5799 5798 5796 5795 5794 5793 5791 5790 5789 5787 5786 5784 5783 5781 5780 5779 5778 5777 5776 5775 5774 5774 5773 5773 5772 5772 5771 5770
5812 5811 5810 5808 5807 5806 5804 5803 5801 5800 5799 5797 5796 5794 5793 5791 5789 5787 5786 5785 5784 5783 5781 5780 5779 5777 5776 5774 5772 5771 5770 5769 5768 5767 5766 5765 5764 5764 5764 5763 5762 5762 5761
Wind_Speed
4 4 4 4 3 3 3 2 1 2 2 2 1 2 2 3 3 3 4 4 4 4 5 5 5 5 5 5 5 6 5 5 5 5 5 5 6 6 7 7 8 8 8
5 5 5 5 4 4 3 3 3 2 2 2 2 3 3 3 3 4 4 5 5 5 5 5 5 5 6 6 6 6 6 6 6 6 6 6 6 7 7 8 8 8 9
6 6 5 5 5 5 5 4 4 4 3 3 3 3 3 3 4 4 4 5 5 5 5 5 6 6 6 7 7 6 7 7 7 7 7 7 7 7 7 8 8 9 9
6 6 6 6 6 6 5 5 5 4 5 5 5 4 4 4 5 5 6 6 5 6 6 6 6 6 7 7 7 7 8 8 9 9 9 9 9 9 9 9 10 9 9
6 6 6 6 6 6 6 6 6 5 5 6 6 6 6 5 6 6 6 6 6 6 6 7 7 8 8 8 8 8 9 10 10 10 10 10 11 11 11 10 10 11 11
7 7 7 6 6 6 6 6 6 6 6 7 7 7 7 7 7 7 7 7 7 7 8 8 8 9 9 9 9 9 10 10 11 11 12 12 12 12 11 12 11 12 11
7 7 7 6 7 7 7 7 7 7 8 7 8 9 9 8 8 8 8 8 9 9 9 9 10 10 10 10 10 11 11 11 12 13 13 12 13 13 13 13 12 12 13
8 8 7 8 8 8 8 9 9 9 9 9 10 10 10 10 10 9 9 9 10 10 11 11 11 11 11 11 12 12 13 13 13 14 14 14 14 13 14 13 13 14 14
9 10 9 9 9 10 10 10 10 10 10 11 12 12 12 12 12 10 10 11 11 11 12 11 11 12 12 13 13 14 14 14 15 14 15 14 14 15 15 15 15 15 15
10 10 10 10 10 10 10 11 11 12 12 13 13 14 13 13 12 12 13 13 12 12 12 12 13 13 13 13 14 15 15 16 16 16 16 16 15 16 16 17 16 15 16
11 11 11 11 10 11 11 11 12 13 13 14 14 14 14 14 13 14 14 14 13 13 13 14 14 15 14 15 15 16 17 17 17 17 17 17 17 17 17 18 17 17 16
12 12 13 13 12 12 12 12 12 13 14 14 14 15 15 15 14 15 15 15 14 15 15 16 16 16 17 17 17 18 18 18 18 19 19 18 18 18 18 18 18 18 17
13 13 14 13 13 13 13 13 13 13 13 14 14 15 16 16 16 16 17 16 16 16 16 17 17 18 18 18 18 18 18 18 19 19 19 19 19 19 18 18 18 19 19
14 14 14 14 14 14 14 13 13 13 14 14 15 15 16 16 17 17 17 18 18 18 18 18 18 19 18 19 19 19 19 19 19 19 19 19 19 19 19 19 19 19 19
14 15 15 15 15 15 15 15 15 16 16 16 17 17 17 18 18 18 18 19 19 19 20 20 20 20 21 21 20 20 20 20 20 20 20 19 19 20 19 18 18 18 18
15 15 16 16 16 17 17 17 17 18 18 19 19 19 19 19 19 20 20 21 21 22 22 21 22 22 22 23 22 22 21 22 22 21 21 21 21 20 20 20 20 19 19
18 17 18 18 18 18 19 19 19 19 20 20 21 21 22 22 22 22 22 23 24 24 24 23 24 24 24 23 23 23 23 24 23 23 23 22 21 21 21 22 22 22 22
20 19 19 19 20 20 20 20 20 20 21 21 22 23 23 23 24 24 24 25 25 26 26 25 25 26 25 25 25 25 25 25 23 24 24 23 23 23 23 23 24 23 24
21 21 21 21 21 21 22 22 22 23 23 23 23 24 24 25 25 26 25 25 26 27 27 27 27 27 26 27 27 26 26 26 25 25 25 24 24 24 24 24 25 25 25
24 24 23 23 23 23 24 24 24 25 25 25 25 25 25 26 26 26 26 26 26 27 27 27 28 28 28 27 27 27 27 27 26 26 26 25 26 26 26 26 26 26 27
26 26 25 25 24 24 25 25 26 26 26 26 26 26 26 26 26 26 27 27 27 28 27 28 28 29 29 28 28 28 28 28 27 27 27 27 26 27 27 27 27 27 27
27 26 27 26 26 26 26 27 27 28 28 27 27 27 27 27 27 27 27 28 28 28 28 28 28 28 28 28 29 29 29 29 28 28 28 28 28 27 27 27 27 27 27
28 28 28 28 28 28 28 29 29 29 29 29 29 28 27 27 28 28 27 28 28 28 28 27 27 27 28 29 29 29 29 29 28 28 28 28 28 27 28 28 28 28 28
29 29 29 30 30 30 30 30 30 30 30 29 28 28 28 28 28 28 28 28 28 29 29 28 28 29 29 29 29 29 29 29 29 29 28 28 28 29 29 29 29 29 30
29 29 30 30 30 30 30 30 30 29 29 28 28 29 29 29 29 29 29 29 29 29 29 29 30 30 30 29 29 29 28 28 29 29 28 29 29 29 30 30 30 30 30
29 28 28 29 29 29 29 29 28 29 29 29 29 29 28 28 28 29 29 29 30 30 30 30 29 29 29 29 28 28 28 28 28 28 28 28 29 29 29 29 29 29 29
Wind_Direction
354 356 356 345 346 347 357 347 308 310 313 308 301 285 288 302 316 319 320 319 321 322 319 316 316 314 316 321 320 308 301 298 298 282 279 278 279 276 278 280 275 272 272
346 343 348 351 344 342 338 334 319 308 305 313 309 300 302 305 307 301 306 305 309 312 312 309 311 310 310 311 313 307 294 292 293 287 282 284 285 283 282 281 276 273 272
352 351 346 348 346 341 336 328 316 306 308 314 315 309 304 304 307 301 298 300 304 305 305 307 306 307 307 308 308 305 299 293 291 290 289 287 287 284 283 280 279 272 272
347 346 347 343 341 342 337 332 323 308 305 304 303 306 307 300 297 296 296 295 298 297 300 305 302 303 307 308 304 300 299 296 291 287 286 285 285 284 282 281 277 272 271
343 342 341 340 339 338 333 326 324 319 307 301 300 302 303 297 294 294 295 293 293 293 295 297 298 298 300 303 304 302 301 301 299 295 292 287 286 283 283 284 280 276 273
333 334 331 332 330 327 322 318 312 311 304 299 298 298 296 295 293 291 293 289 291 291 290 293 295 295 296 298 300 303 302 301 300 299 296 292 288 284 285 282 280 276 276
323 326 327 323 319 311 303 306 306 301 299 297 295 295 296 297 293 294 291 292 290 288 289 291 292 290 292 295 297 298 299 299 300 299 297 293 293 288 286 282 279 277 274
322 319 315 312 309 307 301 300 303 299 296 294 291 291 293 293 293 290 291 295 294 289 288 292 291 291 291 293 296 296 296 297 299 299 298 295 292 292 291 288 281 280 278
318 314 314 312 307 303 300 298 299 300 299 298 295 293 292 290 290 288 288 291 294 292 289 290 293 294 290 289 295 296 297 296 295 295 296 294 291 290 292 289 286 282 278
315 311 307 306 305 301 298 296 296 296 297 298 297 295 295 293 289 289 289 291 292 294 293 292 293 293 293 291 292 293 294 294 293 292 292 292 291 291 291 291 290 286 279
310 309 305 302 301 301 298 295 295 297 296 296 296 295 294 290 285 288 288 289 291 292 292 293 294 292 290 290 291 291 292 291 289 290 291 290 289 289 290 291 290 287 281
303 304 304 300 299 301 302 299 298 299 298 297 295 294 291 290 287 288 286 288 289 291 291 292 294 291 292 292 292 293 293 291 290 288 288 288 288 289 289 290 289 287 286
303 301 300 300 299 301 302 300 301 302 301 299 298 295 293 292 292 289 288 287 289 290 291 292 293 290 291 295 296 297 295 293 290 287 287 287 287 289 289 288 288 287 285
303 302 300 298 296 297 298 299 298 299 300 299 300 299 299 297 295 293 293 289 287 289 290 292 291 291 294 296 296 295 296 295 293 290 288 288 287 286 288 287 287 287 284
303 300 301 299 296 295 296 297 294 295 296 296 297 298 298 297 295 292 291 290 290 290 291 290 290 291 293 293 294 292 292 293 293 291 288 286 285 286 287 288 287 287 284
303 302 303 300 296 295 296 295 292 293 293 294 294 297 297 297 297 292 290 289 289 289 289 289 289 289 290 291 291 290 289 289 289 288 286 284 283 284 285 284 283 282 282
299 298 298 298 295 293 292 291 291 293 293 292 292 295 296 295 294 293 290 288 287 288 288 288 288 288 289 290 290 289 289 288 288 288 287 286 285 285 284 282 283 280 281
296 294 293 294 293 291 289 288 289 290 291 290 290 291 291 292 292 291 289 288 286 287 289 288 287 286 287 288 288 288 288 288 288 287 286 284 284 283 284 283 283 282 281
293 293 292 292 291 289 288 288 289 289 289 289 289 290 289 289 290 290 288 289 289 288 287 288 288 287 286 286 287 287 287 286 286 285 283 284 283 281 282 282 283 282 281
291 292 291 290 289 287 287 288 289 289 288 287 288 289 289 289 290 289 289 290 290 289 287 287 288 288 287 286 286 286 285 284 284 284 283 282 282 280 280 281 281 281 281
289 289 288 287 287 287 287 288 289 289 289 288 287 288 289 289 290 288 287 289 288 289 288 288 288 288 287 287 285 285 284 283 283 283 282 281 281 281 281 281 281 280 281
289 288 288 286 286 288 289 289 287 288 289 288 287 287 287 288 288 288 287 287 288 288 289 289 290 290 290 289 288 285 284 283 283 282 281 280 279 279 279 280 281 281 279
289 287 286 286 287 287 289 289 287 287 287 289 288 288 288 289 287 287 286 286 287 287 289 289 289 290 290 290 288 287 285 283 282 282 281 281 279 277 277 278 278 279 278
286 285 285 286 286 287 288 288 287 286 288 290 290 290 289 288 288 287 286 285 285 286 287 288 288 289 290 290 288 287 286 284 284 282 281 280 279 278 278 279 279 278 277
288 286 284 284 285 286 287 288 288 287 286 288 289 290 290 288 288 287 287 286 284 285 285 286 287 289 290 290 290 288 286 284 283 282 280 280 279 279 279 279 280 280 278
290 287 286 286 287 288 288 288 289 287 287 288 289 290 290 289 288 288 287 286 287 285 285 286 287 288 289 290 290 288 286 284 283 283 283 282 281 280 279 279 279 279 278